Regional Weather Roundup
Issued by NWS

Home | Current Version | Previous Version | Text Only | Print | Product List | Glossary On
Versions: 1 2 3 4 5 6 7 8 9 10 11 12 13 14 15 16 17 18 19 20 21 22 23 24 25 26 27 28 29 30 31 32 33 34 35 36 37 38 39 40 41 42 43 44 45 46 47 48 49 50
000
ASUS44 KBMX 050010
RWRAL

ALABAMA REGIONAL WEATHER ROUNDUP
NATIONAL WEATHER SERVICE BIRMINGHAM AL
700 PM CDT MON MAY 04 2015

NOTE: "FAIR" INDICATES FEW OR NO CLOUDS BELOW 12,000 FEET
WITH NO SIGNIFICANT WEATHER AND/OR OBSTRUCTIONS TO VISIBILITY.

THE REMARK "TC" DENOTES TEMPERATURE IN DEGREES CELSIUS.

ALZ001>011-014-016>018-020-050100-
NORTH ALABAMA

CITY           SKY/WX    TMP DP  RH WIND       PRES   REMARKS
MUSCLE SHOALS  CLEAR     78  52  40 S5        30.20S
6HR MIN TEMP:  78; 6HR MAX TEMP:  84;

HUNTSVILLE     CLEAR     81  50  33 S6        30.20S
6HR MIN TEMP:  80; 6HR MAX TEMP:  84;

DECATUR        CLEAR     71  59  65 SE7       30.20F
6HR MIN TEMP:  71; 6HR MAX TEMP:  81;

HALEYVILLE       N/A     76  55  47 MISG      30.23S
6HR MIN TEMP:  76; 6HR MAX TEMP:  81;

GADSDEN        CLEAR    N/A N/A N/A CALM      30.20S
$$

ALZ012-013-022-023-030>036-040>044-050100-
WEST CENTRAL ALABAMA

CITY           SKY/WX    TMP DP  RH WIND       PRES   REMARKS
TUSCALOOSA     CLEAR     78  56  46 E5        30.19S
6HR MIN TEMP:  78; 6HR MAX TEMP:  84;

$$

ALZ015-024>027-033>036-040>044-050100-
CENTRAL ALABAMA

CITY           SKY/WX    TMP DP  RH WIND       PRES   REMARKS
BIRMINGHAM     PTCLDY    77  53  43 E3        30.23S
6HR MIN TEMP:  77; 6HR MAX TEMP:  83; 6HR PCP: TRACE;

MONTGOMERY     CLEAR     79  57  46 SE3       30.20R
6HR MIN TEMP:  79; 6HR MAX TEMP:  85;

SHELBY CO ARPT CLEAR     78  53  41 SE3       30.21S
6HR MIN TEMP:  78; 6HR MAX TEMP:  82;

MAXWELL AFB    PTCLDY    79  53  41 E3        30.19R
6HR MIN TEMP:  79; 6HR MAX TEMP:  85;

GREENVILLE     FAIR      78  53  41 CALM      30.19S
6HR MIN TEMP:  78; 6HR MAX TEMP:  84;

$$

ALZ019-021-028-029-037-038-045>048-050100-
EAST CENTRAL ALABAMA

CITY           SKY/WX    TMP DP  RH WIND       PRES   REMARKS
ANNISTON       PTCLDY    75  60  59 CALM      30.22R
6HR MIN TEMP:  75; 6HR MAX TEMP:  83;

ALEXANDER CITY CLEAR     74  58  56 CALM      30.23R
6HR MIN TEMP:  74; 6HR MAX TEMP:  80;

AUBURN         CLEAR     73  48  40 S6        30.25R
6HR MIN TEMP:  73; 6HR MAX TEMP:  79;

$$

ALZ051>064-050100-
SOUTHWEST ALABAMA

CITY           SKY/WX    TMP DP  RH WIND       PRES   REMARKS
MOBILE         PTCLDY    74  55  51 SE8       30.19S
6HR MIN TEMP:  74; 6HR MAX TEMP:  83;

BROOKLEY FIELD CLEAR     75  62  64 S6        30.19S
6HR MIN TEMP:  75; 6HR MAX TEMP:  82;

EVERGREEN      CLEAR     79  53  40 E6        30.19S
6HR MIN TEMP:  79; 6HR MAX TEMP:  85;

$$

ALZ049-050-065>069-050100-
SOUTHEAST ALABAMA

CITY           SKY/WX    TMP DP  RH WIND       PRES   REMARKS
DOTHAN         MOCLDY    79  49  34 E6        30.23S
6HR MIN TEMP:  78; 6HR MAX TEMP:  83;

OZARK          CLEAR     77  48  36 E3        30.19S
6HR MIN TEMP:  77; 6HR MAX TEMP:  84;

TROY           CLEAR     76  54  46 SE3       30.21S
6HR MIN TEMP:  76; 6HR MAX TEMP:  84;

EUFAULA        FAIR      74  57  55 CALM      30.20S
6HR MIN TEMP:  74; 6HR MAX TEMP:  87;

$$



USA.gov is the U.S. government's official web portal to all federal, state and local government web resources and services.